Laredo, TX

8:23 PM CDT on July 26, 2017 (GMT -0500)
Laredo International

Weather History for KLRD - October, 2012

Change the Weather History Date:

Sunday, October 21, 2012

  Actual Average Record
Temperature  
Mean Temperature 86 °F 75 °F  
Max Temperature 96 °F 85 °F 100 °F (1926)
Min Temperature 75 °F 64 °F 43 °F (1976)
Degree Days  
Heating Degree Days 0 0  
Month to date heating degree days 2 0  
Since 1 July heating degree days 2 1  
Cooling Degree Days 21 10  
Month to date cooling degree days 344 257  
Year to date cooling degree days 4774 4042  
Growing Degree Days 35 (Base 50)    
Moisture  
Dew Point 68 °F    
Average Humidity 61    
Maximum Humidity 87    
Minimum Humidity 35    
Precipitation  
Precipitation 0.00 in 0.07 in 3.47 in (1985)
Month to date precipitation T 1.67  
Year to date precipitation 8.76 17.59  
Sea Level Pressure  
Sea Level Pressure 29.83 in    
Wind  
Wind Speed 15 mph (SSE)    
Max Wind Speed 25 mph    
Max Gust Speed 30 mph    
Visibility 10 miles    
Events      
T = Trace of Precipitation, MM = Missing Value Source: NWS Daily Summary

Daily Weather History Graph

Daily Weather History Graph

Search for Another Location

Airport or City:

Trip Planner

Search our weather history database for the weather conditions in past years. The results will help you decide how hot, cold, wet, or windy it might be!

Date:

Astronomy

Oct. 21, 2012 Rise Set
Actual Time 7:41 AM CDT 7:02 PM CDT
Civil Twilight 7:17 AM CDT 7:26 PM CDT
Nautical Twilight 6:50 AM CDT 7:53 PM CDT
Astronomical Twilight 6:23 AM CDT 8:20 PM CDT
Moon 1:53 PM CDT (10/21) 12:04 AM CDT (10/21)
Length of Visible Light 12h 08m
Length of Day
11h 20m
Waxing Crescent, 45% of the Moon is Illuminated
Oct 21
Waxing Crescent
Oct 21
First Quarter
Oct 29
Full
Nov 6
Last Quarter
Nov 13
New

Hourly Weather History & Observations

Time (CDT) Temp. Heat Index Dew Point Humidity Pressure Visibility Wind Dir Wind Speed Gust Speed Precip Events Conditions
12:56 AM 79.9 °F - 70.0 °F 72% 29.82 in 10.0 mi SSE 12.7 mph - N/A   Clear
1:56 AM 79.0 °F - 70.0 °F 74% 29.81 in 10.0 mi SSE 12.7 mph - N/A   Clear
2:56 AM 77.9 °F - 70.0 °F 76% 29.81 in 10.0 mi SSE 12.7 mph - N/A   Clear
3:56 AM 77.9 °F - 70.0 °F 76% 29.81 in 10.0 mi SSE 12.7 mph - N/A   Clear
4:56 AM 77.0 °F - 70.0 °F 79% 29.81 in 10.0 mi SSE 12.7 mph - N/A   Clear
5:56 AM 75.9 °F - 70.0 °F 82% 29.83 in 10.0 mi SSE 10.4 mph - N/A   Clear
6:56 AM 75.9 °F - 70.9 °F 84% 29.83 in 10.0 mi SSE 11.5 mph - N/A   Clear
7:56 AM 74.8 °F - 70.9 °F 87% 29.85 in 9.0 mi SE 11.5 mph - N/A   Clear
8:56 AM 77.0 °F - 70.9 °F 81% 29.88 in 10.0 mi SSE 16.1 mph - N/A   Clear
9:56 AM 81.0 °F 84.7 °F 70.9 °F 71% 29.89 in 10.0 mi SSE 17.3 mph - N/A   Clear
10:56 AM 84.2 °F 88.4 °F 69.8 °F 62% 29.93 in 10.0 mi South 18.4 mph - N/A   Partly Cloudy
11:56 AM 86.9 °F 91.0 °F 68.9 °F 55% 29.88 in 10.0 mi SSE 16.1 mph - N/A   Clear
12:56 PM 90.9 °F 94.8 °F 68.0 °F 47% 29.87 in 10.0 mi SSE 12.7 mph - N/A   Clear
1:56 PM 92.8 °F 97.6 °F 68.9 °F 45% 29.83 in 10.0 mi South 13.8 mph 25.3 mph N/A   Clear
2:56 PM 93.9 °F 97.5 °F 66.9 °F 41% 29.79 in 10.0 mi SSE 16.1 mph - N/A   Clear
3:56 PM 95.9 °F 99.0 °F 65.8 °F 37% 29.78 in 10.0 mi SE 15.0 mph - N/A   Clear
4:56 PM 96.8 °F 99.0 °F 64.4 °F 34% 29.80 in 10.0 mi SSE 17.3 mph - N/A   Clear
5:56 PM 95.0 °F 97.0 °F 63.9 °F 36% 29.77 in 10.0 mi SSE 19.6 mph - N/A   Clear
6:56 PM 91.9 °F 94.1 °F 64.9 °F 41% 29.78 in 10.0 mi SE 19.6 mph - N/A   Clear
7:56 PM 88.9 °F 91.0 °F 65.8 °F 46% 29.81 in 10.0 mi SE 18.4 mph 24.2 mph N/A   Clear
8:56 PM 86.9 °F 88.6 °F 64.9 °F 48% 29.83 in 10.0 mi SE 16.1 mph 24.2 mph N/A   Clear
9:56 PM 83.8 °F 87.0 °F 68.0 °F 59% 29.85 in 10.0 mi SE 11.5 mph - N/A   Clear
10:56 PM 82.4 °F 84.6 °F 66.2 °F 58% 29.91 in 10.0 mi SSE 13.8 mph - N/A   Clear
11:56 PM 79.9 °F - 68.0 °F 67% 29.87 in 10.0 mi SE 15.0 mph - N/A   Clear